User: anonymous   Login
Location: Unspecified
(0.0000°N, 0.0000°E)
Time: 01:15:00
(UTC+01:00)
Language:

Centaur D-1AR AC-41 - Orbit

View from above orbital plane
View from above orbital plane
View from above satellite
View from above satellite

Ground track
Ground track

The orbit data is extracted from the following two-line orbital elements,

1 10976U 78068B   16345.09602877 -.00000202  00000-0 -69625-3 0  9997
2 10976  21.6138 268.4236 7167554 141.5160 358.7028  2.22304010312047
Epoch (UTC): 10 December 2016 02:18:16
Eccentricity: 0.7167554
inclination: 21.6138°
perigee height: 646 km
apogee height: 36195 km
right ascension of ascending node: 268.4236°
argument of perigee: 141.5160°
revolutions per day: 2.22304010
mean anomaly at epoch: 358.7028°
orbit number at epoch: 31204

The dashed part of the orbit path shows where the satellite is in the earth's shadow,  

DLR